Newton, KS

11:44 AM CST on November 22, 2019 (GMT -0600)
Newton City County

Weather History for KEWK - August, 2019

Change the Weather History Date:

Thursday, August 29, 2019

  Actual Average Record
Temperature  
Mean Temperature 78 °F -  
Max Temperature 89 °F 85 °F 96 °F (2013)
Min Temperature 66 °F 63 °F 55 °F (2004)
Cooling Degree Days 12    
Growing Degree Days 28 (Base 50)    
Moisture  
Dew Point 71 °F    
Average Humidity 80    
Maximum Humidity 96    
Minimum Humidity 63    
Precipitation  
Precipitation 0.00 in - - ()
Sea Level Pressure  
Sea Level Pressure 29.95 in    
Wind  
Wind Speed 11 mph (South)    
Max Wind Speed 20 mph    
Max Gust Speed 23 mph    
Visibility 10 miles    
Events      
Averages and records for this station are not official NWS values.
T = Trace of Precipitation, MM = Missing Value Source: NWS Daily Summary

Daily Weather History Graph

Daily Weather History Graph

Search for Another Location

Airport or City:

Astronomy

Aug. 29, 2019 Rise Set
Actual Time 6:56 AM CDT 8:03 PM CDT
Civil Twilight 6:29 AM CDT 8:30 PM CDT
Nautical Twilight 5:56 AM CDT 9:02 PM CDT
Astronomical Twilight 5:22 AM CDT 9:36 PM CDT
Moon 5:45 AM CDT (8/29) 7:59 PM CDT (8/29)
Length of Visible Light 14h 01m
Length of Day
13h 07m
Waning Crescent, 1% of the Moon is Illuminated
Aug 29
Waning Crescent
Aug 30
New
Sep 5
First Quarter
Sep 13
Full
Sep 21
Last Quarter

Hourly Weather History & Observations

Time (CDT) Temp. Heat Index Dew Point Humidity Pressure Visibility Wind Dir Wind Speed Gust Speed Precip Events Conditions
12:56 AM 66.9 °F - 63.0 °F 87% 30.00 in 10.0 mi SSE 8.1 mph - N/A   Clear
1:56 AM 66.0 °F - 63.0 °F 90% 30.00 in 10.0 mi SSE 6.9 mph - N/A   Clear
2:56 AM 66.9 °F - 64.0 °F 90% 29.99 in 10.0 mi SSE 6.9 mph - N/A   Clear
3:56 AM 69.1 °F - 66.9 °F 93% 29.98 in 10.0 mi South 9.2 mph - N/A   Clear
4:56 AM 70.0 °F - 68.0 °F 93% 29.97 in 10.0 mi South 11.5 mph - N/A   Clear
6:56 AM 71.1 °F - 70.0 °F 96% 29.98 in 10.0 mi South 10.4 mph - N/A   Mostly Cloudy
7:56 AM 71.1 °F - 70.0 °F 96% 29.99 in 10.0 mi South 9.2 mph - N/A   Partly Cloudy
8:56 AM 75.0 °F - 71.1 °F 87% 29.99 in 10.0 mi South 10.4 mph - N/A   Clear
9:56 AM 78.1 °F - 71.1 °F 79% 29.99 in 10.0 mi South 16.1 mph 21.9 mph N/A   Mostly Cloudy
10:56 AM 81.0 °F 85.2 °F 72.0 °F 74% 29.99 in 10.0 mi SSW 19.6 mph - N/A   Mostly Cloudy
11:56 AM 82.9 °F 88.8 °F 73.0 °F 72% 29.98 in 10.0 mi SSW 16.1 mph - N/A   Scattered Clouds
12:56 PM 84.9 °F 92.1 °F 73.9 °F 69% 29.95 in 10.0 mi South 15.0 mph - N/A   Clear
1:56 PM 86.0 °F 93.8 °F 73.9 °F 67% 29.93 in 10.0 mi South 16.1 mph 20.7 mph N/A   Clear
2:56 PM 88.0 °F 97.5 °F 75.0 °F 65% 29.92 in 10.0 mi South 16.1 mph 23.0 mph N/A   Partly Cloudy
3:56 PM 89.1 °F 99.1 °F 75.0 °F 63% 29.91 in 10.0 mi South 17.3 mph 21.9 mph N/A   Partly Cloudy
5:56 PM 87.1 °F 96.3 °F 75.0 °F 67% 29.90 in 10.0 mi SSE 15.0 mph 20.7 mph N/A   Clear
6:56 PM 84.0 °F 91.2 °F 73.9 °F 72% 29.89 in 10.0 mi SSE 10.4 mph - N/A   Clear
7:56 PM 81.0 °F 85.8 °F 73.0 °F 77% 29.91 in 10.0 mi SSE 8.1 mph - N/A   Clear
8:56 PM 79.0 °F - 73.0 °F 82% 29.91 in 10.0 mi SSE 10.4 mph - N/A   Clear
9:56 PM 78.1 °F - 73.0 °F 84% 29.91 in 10.0 mi SSE 11.5 mph - N/A   Clear
10:56 PM 78.1 °F - 73.0 °F 84% 29.90 in 10.0 mi SSE 12.7 mph - N/A   Clear
11:56 PM 79.0 °F - 73.9 °F 84% 29.92 in 10.0 mi South 15.0 mph - N/A   Scattered Clouds